TimeEST,TemperatureF,Dew PointF,Humidity,Sea Level PressureIn,VisibilityMPH,Wind Direction,Wind SpeedMPH,Gust SpeedMPH,PrecipitationIn,Events,Conditions,WindDirDegrees,DateUTC
12:53 AM,44.1,34.0,68,30.37,10.0,NNE,12.7,21.9,N/A,,Overcast,30,2012-11-15 05:53:00
1:53 AM,44.1,34.0,68,30.37,10.0,NNE,16.1,27.6,N/A,,Overcast,30,2012-11-15 06:53:00
2:53 AM,44.1,35.1,71,30.36,10.0,NNE,13.8,21.9,N/A,,Overcast,30,2012-11-15 07:53:00
3:53 AM,44.1,35.1,71,30.36,10.0,NNE,16.1,26.5,N/A,,Overcast,30,2012-11-15 08:53:00
4:53 AM,44.1,35.1,71,30.36,10.0,NNE,16.1,23.0,N/A,,Overcast,30,2012-11-15 09:53:00
5:53 AM,44.1,35.1,71,30.36,10.0,NNE,11.5,19.6,N/A,,Overcast,30,2012-11-15 10:53:00
6:53 AM,44.1,35.1,71,30.36,10.0,NNE,13.8,20.7,N/A,,Overcast,30,2012-11-15 11:53:00
7:53 AM,44.1,36.0,73,30.37,10.0,NNE,16.1,20.7,N/A,,Overcast,20,2012-11-15 12:53:00
8:53 AM,44.1,36.0,73,30.37,10.0,NNE,13.8,-,N/A,,Overcast,20,2012-11-15 13:53:00
9:53 AM,45.0,36.0,71,30.35,10.0,NNE,16.1,-,N/A,,Overcast,30,2012-11-15 14:53:00
10:53 AM,45.0,36.0,71,30.35,10.0,NNE,12.7,24.2,N/A,,Overcast,30,2012-11-15 15:53:00
11:53 AM,45.0,37.0,74,30.33,10.0,NNE,13.8,-,N/A,,Overcast,20,2012-11-15 16:53:00
12:53 PM,46.0,37.0,71,30.30,10.0,NNE,13.8,-,N/A,,Overcast,20,2012-11-15 17:53:00
1:53 PM,45.0,37.0,74,30.30,10.0,NNE,12.7,-,N/A,,Overcast,20,2012-11-15 18:53:00
2:53 PM,45.0,37.0,74,30.29,10.0,NNE,13.8,19.6,N/A,,Overcast,20,2012-11-15 19:53:00
3:53 PM,44.1,36.0,73,30.30,10.0,North,11.5,-,N/A,,Overcast,10,2012-11-15 20:53:00
4:53 PM,44.1,37.0,76,30.30,10.0,North,10.4,-,N/A,,Overcast,360,2012-11-15 21:53:00
5:53 PM,44.1,37.0,76,30.30,10.0,North,10.4,-,N/A,,Overcast,350,2012-11-15 22:53:00
6:53 PM,43.0,37.0,80,30.30,10.0,NNW,10.4,-,N/A,,Overcast,340,2012-11-15 23:53:00
7:53 PM,43.0,37.0,80,30.29,10.0,North,9.2,-,N/A,,Overcast,350,2012-11-16 00:53:00
8:53 PM,43.0,37.0,80,30.29,10.0,NNW,9.2,-,N/A,,Overcast,340,2012-11-16 01:53:00
9:53 PM,43.0,37.0,80,30.28,10.0,NNW,9.2,-,N/A,,Overcast,340,2012-11-16 02:53:00
10:53 PM,43.0,37.0,80,30.27,10.0,North,8.1,-,N/A,,Overcast,10,2012-11-16 03:53:00
11:53 PM,43.0,36.0,76,30.26,10.0,NNE,13.8,-,N/A,,Overcast,20,2012-11-16 04:53:00